Regional Weather Roundup
Issued by NWS

Home | Current Version | Previous Version | Text Only | Print | Product List | Glossary On
Versions: 1 2 3 4 5 6 7 8 9 10 11 12 13 14 15 16 17 18 19 20 21 22 23 24 25 26 27 28 29 30 31 32 33 34 35 36 37 38 39 40 41 42 43 44 45 46 47 48 49 50
000
ASUS43 KFSD 211010
RWRSD

WEATHER ROUNDUP FOR SOUTH DAKOTA
NATIONAL WEATHER SERVICE SIOUX FALLS SD
500 AM CDT MON APR 21 2014

NOTE: "FAIR" INDICATES FEW OR NO CLOUDS BELOW 12,000 FEET WITH NO
SIGNIFICANT WEATHER AND/OR OBSTRUCTIONS TO VISIBILITY.


SDZ001>005-009-010-012>017-211100-
NORTHWEST AND NORTH CENTRAL SOUTH DAKOTA

CITY           SKY/WX    TMP DP  RH WIND       PRES   REMARKS
BUFFALO          N/A     40  22  48 W8        30.12R
FAITH            N/A     38  25  59 W9        30.15R
MOBRIDGE       CLEAR     36  25  64 CALM      30.08R
$$

SDZ012>016-024>037-041>051-057-063-072>074-211100-
SOUTHWEST AND SOUTH CENTRAL SOUTH DAKOTA

CITY           SKY/WX    TMP DP  RH WIND       PRES   REMARKS
RAPID CTY ARPT CLEAR     35  21  56 NW9       30.20R WCI  28
PIERRE         CLEAR     42  27  55 NW10      30.11R
CUSTER         CLEAR     40  13  33 NW6       30.23S
ELLSWORTH AFB  CLEAR     36  20  52 NW12      30.20R
PHILIP         CLEAR     37  25  61 W7        30.17R
PINE RIDGE     PTCLDY    37  27  67 E5        30.20R
SPEARFISH      FAIR      37  19  48 CALM      30.23R
WINNER         FAIR      43  29  57 NW8       30.11R
$$

SDZ004>011-016>023-039-040-211100-
NORTHEAST SOUTH DAKOTA

CITY           SKY/WX    TMP DP  RH WIND       PRES   REMARKS
ABERDEEN       CLEAR     41  30  65 NW10      30.05R
WATERTOWN      CLEAR     44  34  67 N9        30.00R
SISSETON         N/A     46  33  60 NW10      29.99R
$$

SDZ017-020-022-023-036>040-048>070-211100-
SOUTHEAST SOUTH DAKOTA

CITY           SKY/WX    TMP DP  RH WIND       PRES   REMARKS
SIOUX FALLS    CLOUDY    57  48  72 N18G25    29.92R
HURON          CLEAR     40  32  73 NW9       30.03R
CHAMBERLAIN      N/A     52  31  44 N12       30.08R
MITCHELL       PTCLDY    51  35  54 N15       30.02R
YANKTON        CLOUDY    54  45  71 NW17      29.94R
$$

ABBREVIATIONS USED IN REMARKS
   TC - TEMPERATURE IN CELSIUS
  WCI - WIND CHILL INDEX
   HX - HEAT INDEX
  VSB - VISIBILITY




USA.gov is the U.S. government's official web portal to all federal, state and local government web resources and services.